Regional Weather Roundup
Issued by NWS

Home | Current Version | Previous Version | Graphics & Text | Print | Product List | Glossary On
Versions: 1 2 3 4 5 6 7 8 9 10 11 12 13 14 15 16 17 18 19 20 21 22 23 24 25 26 27
000
ASUS45 KCYS 250710
RWRWY

WYOMING REGIONAL WEATHER ROUNDUP
NATIONAL WEATHER SERVICE CHEYENNE WY
100 AM MDT SUN JUN 25 2017

NOTE:  "FAIR" INDICATES FEW OR NO CLOUDS BELOW 12,000 FEET
WITH NO SIGNIFICANT WEATHER AND/OR OBSTRUCTIONS TO VISIBILITY.

WYZ001-250800-
YELLOWSTONE NATIONAL PARK

CITY           SKY/WX    TMP DP  RH WIND       PRES   REMARKS
LK YELLOWSTONE   N/A     39  33  79 CALM      30.48R
W YELLOWSTONE  NOT AVBL

$$
WYZ002>013-054>058-071-098>099-250800-
NORTHERN WYOMING

CITY           SKY/WX    TMP DP  RH WIND       PRES   REMARKS
JACKSON        FAIR      48  37  66 NE3       30.37S
CODY           FAIR      53  35  50 SW3       30.38F
GREYBULL       MOCLDY    65  32  29 NW10      30.29S
WORLAND        FAIR      60  39  45 S5        30.32S
SHERIDAN       FAIR      50  40  68 S3        30.35F
BUFFALO        MOCLDY    55  37  50 SW5       30.40F
GILLETTE       FAIR      44  34  67 CALM      30.37F
NEWCASTLE      FAIR      55  28  35 E13       30.38S

$$
WYZ014>020-022>026-101>103-250800-
CENTRAL WYOMING

CITY           SKY/WX    TMP DP  RH WIND       PRES   REMARKS
BIG PINEY      FAIR      48  36  63 N7        30.39S
PINEDALE       FAIR      46  37  71 NW5       30.40S
DUBOIS         FAIR      48  32  53 CALM      30.43S
LANDER         FAIR      54  37  52 W8        30.38R
RIVERTON       FAIR      57  35  43 NE8       30.39R
CASPER         CLOUDY    57  34  41 NE7       30.40R
DOUGLAS        CLOUDY    55  32  41 E10       30.40S

$$
WYZ021-027>030-104>119-250800-
SOUTHERN WYOMING

CITY           SKY/WX    TMP DP  RH WIND       PRES   REMARKS
EVANSTON       FAIR      58  36  43 S6        30.38R
KEMMERER         N/A     54  34  47 N10       30.40R
FORT BRIDGER   FAIR      60  32  35 NW6       30.40R
ROCK SPRINGS   NOT AVBL
DIXON          FAIR      54  28  37 NE10      30.34S
RAWLINS        NOT AVBL
SARATOGA       FAIR      50  37  62 E8        30.37F
LARAMIE        FAIR      51  37  58 SE13      30.41F
CHEYENNE       CLOUDY    53  37  54 CALM      30.41R
TORRINGTON     MOCLDY    58  33  39 NE13      30.34S
PINE BLUFFS    FAIR      46  43  87 CALM      30.38F

$$




USA.gov is the U.S. government's official web portal to all federal, state and local government web resources and services.